Weather History for Bedford, MA

Change the Weather History Date:

Monday, February 11, 2013

  Actual Average Record
Temperature  
Mean Temperature 22 °F -  
Max Temperature 37 °F 36 °F 63 °F (1981)
Min Temperature 8 °F 16 °F -10 °F (1962)
Degree Days  
Heating Degree Days 42    
Moisture  
Dew Point 28 °F    
Average Humidity 94    
Maximum Humidity 100    
Minimum Humidity 72    
Precipitation  
Precipitation 0.23 in - - ()
Sea Level Pressure  
Sea Level Pressure 29.90 in    
Wind  
Wind Speed 1 mph (SW)    
Max Wind Speed 9 mph    
Max Gust Speed -    
Visibility 4 miles    
Events Fog , Rain , Snow    
Averages and records for this station are not official NWS values.
T = Trace of Precipitation, MM = Missing Value Source: NWS Daily Summary

Daily Weather History Graph

Daily Weather History Graph

Search for Another Location

Airport:

Trip Planner

Search our weather history database for the weather conditions in past years. The results will help you decide how hot, cold, wet, or windy it might be!

Date:

Astronomy

Feb. 11, 2013 Rise Set
Actual Time 6:46 AM EST 5:12 PM EST
Civil Twilight 6:17 AM EST 5:41 PM EST
Nautical Twilight 5:44 AM EST 6:14 PM EST
Astronomical Twilight 5:12 AM EST 6:47 PM EST
Moon 7:06 AM EST (2/11) 7:09 PM EST (2/11)
Length of Visible Light 11h 23m
Length of Day
10h 25m
Waxing Crescent, 3% of the Moon is Illuminated
Feb 11
Waxing Crescent
Feb 17
First Quarter
Feb 25
Full
Mar 4
Last Quarter
Mar 11
New

Hourly Weather History & Observations

Time (EST) Temp. Windchill Dew Point Humidity Pressure Visibility Wind Dir Wind Speed Gust Speed Precip Events Conditions
12:56 AM 9.0 °F - 6.1 °F 88% 30.38 in 10.0 mi Calm Calm - N/A   Scattered Clouds
1:56 AM 8.1 °F - 3.9 °F 83% 30.35 in 10.0 mi Calm Calm - N/A   Clear
2:56 AM 12.0 °F - 7.0 °F 80% 30.33 in 10.0 mi Calm Calm - N/A   Clear
3:56 AM 14.0 °F - 8.1 °F 77% 30.31 in 10.0 mi Calm Calm - N/A   Clear
4:56 AM 16.0 °F - 9.0 °F 74% 30.28 in 10.0 mi Calm Calm - N/A   Clear
5:56 AM 17.1 °F - 12.0 °F 81% 30.29 in 10.0 mi Calm Calm - N/A   Partly Cloudy
6:56 AM 19.9 °F - 14.0 °F 78% 30.26 in 10.0 mi Calm Calm - N/A   Overcast
7:56 AM 23.0 °F - 15.1 °F 72% 30.23 in 10.0 mi Calm Calm - N/A   Overcast
8:56 AM 27.0 °F 20.5 °F 21.0 °F 78% 30.18 in 5.0 mi ESE 5.8 mph - 0.01 in Snow Light Snow
9:56 AM 32.0 °F 24.2 °F 28.0 °F 85% 30.12 in 7.0 mi SE 9.2 mph - 0.02 in   Overcast
10:37 AM 33.8 °F 30.8 °F 30.2 °F 87% 30.04 in 3.0 mi Variable 3.5 mph - 0.02 in Rain Rain
10:56 AM 33.1 °F - 32.0 °F 96% 30.08 in 3.0 mi Calm Calm - 0.04 in Rain Light Rain
11:15 AM 33.8 °F - 32.0 °F 93% 30.00 in 2.0 mi Calm Calm - 0.01 in Rain Light Rain
11:52 AM 33.8 °F 30.8 °F 33.8 °F 100% 29.95 in 1.5 mi ENE 3.5 mph - 0.03 in Rain Light Rain
11:56 AM 33.1 °F 30.0 °F 33.1 °F 100% 30.00 in 1.5 mi ENE 3.5 mph - 0.03 in Rain Light Rain
12:56 PM 35.1 °F - 35.1 °F 100% 29.93 in 1.2 mi Calm Calm - 0.07 in Rain Rain
1:13 PM 35.6 °F 32.8 °F 35.6 °F 100% 29.85 in 3.0 mi SSE 3.5 mph - 0.01 in Rain Light Rain
1:38 PM 37.4 °F 34.9 °F 37.4 °F 100% 29.82 in 2.5 mi South 3.5 mph - 0.02 in Rain Light Rain
1:53 PM 37.4 °F 34.9 °F 37.4 °F 100% 29.81 in 1.0 mi South 3.5 mph - 0.02 in Rain Light Rain
1:56 PM 37.0 °F 33.3 °F 37.0 °F 100% 29.86 in 1.0 mi South 4.6 mph - 0.02 in Rain Light Rain
2:56 PM 36.0 °F 31.1 °F 36.0 °F 100% 29.83 in 1.0 mi WNW 5.8 mph - 0.01 in Rain Light Rain
3:56 PM 34.0 °F - 34.0 °F 100% 29.80 in 1.0 mi Calm Calm - 0.03 in Rain Light Rain
4:51 PM 33.8 °F - 33.8 °F 100% 29.71 in 0.8 mi Calm Calm - 0.00 in   Overcast
4:56 PM 33.1 °F - 33.1 °F 100% 29.76 in 0.8 mi Calm Calm - 0.00 in   Overcast
5:56 PM 33.1 °F - 30.9 °F 92% 29.74 in 0.8 mi Calm Calm - N/A   Overcast
6:56 PM 33.1 °F - 33.1 °F 100% 29.73 in 0.5 mi Calm Calm - N/A Fog Fog
7:56 PM 33.1 °F - 33.1 °F 100% 29.69 in 0.5 mi Calm Calm - N/A Fog Fog
8:56 PM 33.1 °F - 33.1 °F 100% 29.67 in 0.5 mi Calm Calm - N/A Fog Fog
9:48 PM 33.8 °F 28.6 °F 33.8 °F 100% 29.62 in 1.0 mi NW 5.8 mph - N/A Fog Fog
9:56 PM 33.1 °F 30.0 °F 33.1 °F 100% 29.67 in 1.2 mi WNW 3.5 mph - N/A Fog Fog
10:03 PM 33.8 °F - 33.8 °F 100% 29.62 in 2.0 mi Calm Calm - N/A   Overcast
10:34 PM 33.8 °F - 33.8 °F 100% 29.60 in 1.8 mi Calm Calm - N/A   Overcast
10:56 PM 33.1 °F 30.0 °F 33.1 °F 100% 29.65 in 1.5 mi WNW 3.5 mph - N/A   Overcast
11:08 PM 33.8 °F - 33.8 °F 100% 29.60 in 2.0 mi Calm Calm - N/A   Overcast
11:17 PM 33.8 °F 30.8 °F 33.8 °F 100% 29.61 in 1.8 mi West 3.5 mph - N/A   Overcast
11:29 PM 33.8 °F 30.8 °F 33.8 °F 100% 29.61 in 2.0 mi West 3.5 mph - N/A   Overcast
11:51 PM 33.8 °F 28.6 °F 33.8 °F 100% 29.61 in 3.0 mi West 5.8 mph - N/A   Mostly Cloudy
11:56 PM 33.1 °F 28.7 °F 33.1 °F 100% 29.65 in 3.0 mi West 4.6 mph - N/A   Overcast